Location: Newark
(45.2500°N, 7.5833°E)
Time: 00:30:09
(UTC+00:00)

First-Move - Pass Details

Date: 24 February 2020
Orbit: 577 x 668 km, 97.6° (Epoch: 28 March)

Event Time Altitude Azimuth Distance (km) Brightness Sun altitude
Rises 05:18:11 0° 16° (NNE) 3,024 ? -11.2°
Reaches altitude 10° 05:20:29 10° 21° (NNE) 2,104 ? -10.8°
Maximum altitude 05:25:01 56° 100° (E) 796 ? -10.0°
Drops below altitude 10° 05:29:27 10° 178° (S) 2,065 ? -9.2°
Sets 05:31:41 0° 183° (S) 2,961 ? -8.8°
